NOAA NWS Hourly Roundups by Site

Regional Weather Roundup for State College, PA

To Select Another Site Choose from List

Select Site:  

000
ASUS41 KCTP 220710
RWRCTP

REGIONAL WEATHER ROUNDUP
NATIONAL WEATHER SERVICE STATE COLLEGE PA
200 AM EST WED JAN 22 2020

Note: "fair" indicates few or no clouds below 12,000 feet with no
significant weather and/or obstructions to visibility.

* = STATION THAT DOES NOT REPORT PRECIPITATION /E.G. RAIN...SNOW...ETC/
    THUNDER OR FOG.

PAZ002>004-007>009-013>016-020>023-029>032-220800-
WESTERN PENNSYLVANIA

CITY           SKY/WX    TMP DP  RH WIND       PRES   REMARKS
ERIE           FAIR      20  11  68 S8        30.42F WCI  10
MEADVILLE      FAIR      13   9  84 S7        30.39F WCI   3
FRANKLIN       FAIR      11   8  88 SW5       30.40F WCI   3
NEW CASTLE     FAIR      10   7  87 CALM      30.44F
BEAVER COUNTY  FAIR      16  11  82 S3        30.42F
BUTLER         FAIR      10   6  84 CALM      30.43F
PITTSBURGH INT FAIR      13   8  81 CALM      30.42F
PITTSBURGH     FAIR      16  11  80 S6        30.42F WCI   7
INDIANA*       CLEAR     12  10  92 CALM      30.46S
LATROBE        FAIR      12  10  92 CALM      30.45S
WASHINGTON CO* NOT AVBL
$$

PAZ004>006-010>012-017>019-024>028-033>037-041-042-045-046-049>053-220800-
CENTRAL PENNSYLVANIA

CITY           SKY/WX    TMP DP  RH WIND       PRES   REMARKS
BRADFORD       FAIR      11   7  84 CALM      30.33S
ST MARYS       PTSUNNY   12  10  92 W5        30.38F WCI   4
DUBOIS         FAIR      13   7  77 SW3       30.36F
CLEARFIELD     FAIR      13  10  88 SW5       30.39F WCI   5
JOHNSTOWN      FAIR      11   7  84 SW3       30.33F
SOMERSET       FAIR      10   7  85 SW5       30.35F WCI   2
ALTOONA        FAIR      16   9  74 CALM      30.39F
STATE COLLEGE  FAIR      15  10  80 CALM      30.40F
REEDSVILLE     FAIR      19  12  73 CALM      30.43
WELLSBORO      FAIR      14  10  85 W7        30.32F WCI   4
WILLIAMSPORT   FAIR      19  12  74 NW7       30.44S WCI  10
SELINSGROVE    FAIR      16  13  88 CALM      30.45S
FT INDIANTOWN  FAIR      24  11  59 W5        30.43F
CAPITAL CITY   FAIR      22  13  68 W5        30.46R
HARRISBURG     FAIR      24  14  65 NW10      30.44F WCI  14
YORK           FAIR      16  10  77 CALM      30.44S
$$

PAZ038>040-043-044-047-048-054-055-060>062-067>071-220800-
EASTERN PENNSYLVANIA

CITY           SKY/WX    TMP DP  RH WIND       PRES   REMARKS
TOWANDA        SUNNY     16  12  86 CALM      30.43R
SCRANTON       FAIR      14   9  80 CALM      30.38F
MOUNT POCONO   FAIR      12   8  84 W7        30.29F WCI   1
HAZLETON       FAIR      19  12  73 W3        30.36S
LEHIGHTON      NOT AVBL
ALLENTOWN      FAIR      20  12  71 CALM      30.42F
QN CITY/ALNTWN FAIR      23  16  74 S3        30.44R
QUAKERTOWN*    SUNNY     14  12  92 CALM      30.42S
PERKASIE*      FAIR      16  14  93 CALM      30.42S
DOYLESTOWN     FAIR      20  11  68 CALM      30.42S
READING        FAIR      21  15  78 S3        30.43S
LANCASTER      FAIR      21  13  71 W3        30.43F
COATESVILLE    FAIR      23  16  74 NW5       30.42F
WEST CHESTER   FAIR      21  16  79 CALM      30.42F
POTTSTOWN      FAIR      16  12  84 CALM      30.44F
BLUE BELL      FAIR      19  14  79 CALM      30.44S
NORTH PHILA    FAIR      25  12  58 NW3       30.46S
PHILADELPHIA   CLEAR     25  11  55 CALM      30.45F
$$



 

View Past Reports for State College, PA.

Products Courtesy of NOAA-NWS
NWS Information Parsing Script by Ken True at Saratoga Weather - Script by SE Lincoln Weather.